STARLINK-31976 (59887 NORAD) Tracking and Keplerian Element Data

This shows tracking and keplerian element data for the satellite.

Feedback or suggestion? Click here.




ElementValue
Catalog59887
NameSTARLINK-31976
Epoch Orbit290
Epoch Day160.16667824
Epoch Year2024
RAAN174.3997
Inclination43.0039
Eccentricity0.0001202
Argument of Perigee269.8811
Mean Anonmoly308.1658
Mean Motion15.79988387
Decay Rate-0.00967288
L11 59887U 24100C 24160.16667824 -.00967288 00000+0 -56434-2 0 9992
L22 59887 43.0039 174.3997 0001202 269.8811 308.1658 15.79988387 2905



Live tracking and technical data element details for STARLINK-31976 (NORAD 59887). STARLINK-31976 can be tracked NOW for your location showing map with azimuth and elevation plus other details from your city location.







IsCatalogInMostPopularTable: catalog: 59887, numindb: 6
Update: records affected: 1



GetName: 59887 STARLINK-31976

Hit Count: updated at: Tue, 16 Jul 2024 02:45:30 GMT